When you browse on this site, cookies collect data to enhance your experience and personalize the content and advertising you see.
Visit our Privacy Policy to learn more. By continuing to use the site, you agree to this use of cookies and data.
  • In Hungary
  • List of Countries
  • For 7 days
  • Water Temperature
  • Weather Map
  • News
  • Weather Widgets
  • user-avatar
    Login

    Hourly Weather Reshetiha

    Today, 18 January, Saturday

    Time Temperature Precipitation Wind Pressure Humidity
    00:00 +1°C° 0 mm 3 mps 752 mmHg 89%
    01:00 0°C° 0 mm 3 mps 752 mmHg 90%
    02:00 +1°C° 0 mm 2 mps 753 mmHg 92%
    03:00 +1°C° 0 mm 2 mps 752 mmHg 93%
    04:00 +1°C° 0 mm 2 mps 752 mmHg 93%
    05:00 -1°C° 0 mm 2 mps 752 mmHg 93%
    06:00 -1°C° 0 mm 2 mps 752 mmHg 94%
    07:00 -2°C° 0 mm 2 mps 752 mmHg 95%
    08:00 -2°C° 0 mm 2 mps 752 mmHg 96%
    09:00 -2°C° 0 mm 3 mps 752 mmHg 93%
    10:00 -1°C° 0 mm 3 mps 752 mmHg 90%
    11:00 -1°C° 0 mm 3 mps 751 mmHg 87%
    12:00 -1°C° 0 mm 3 mps 751 mmHg 85%
    13:00 0°C° 0 mm 3 mps 751 mmHg 84%
    14:00 0°C° 0 mm 3 mps 750 mmHg 82%
    15:00 0°C° 0 mm 3 mps 750 mmHg 82%
    16:00 -1°C° 0 mm 3 mps 749 mmHg 82%
    17:00 -2°C° 0 mm 4 mps 749 mmHg 82%
    18:00 -2°C° 0 mm 4 mps 749 mmHg 79%
    19:00 -2°C° 0 mm 4 mps 749 mmHg 77%
    20:00 -2°C° 0 mm 4 mps 749 mmHg 74%
    21:00 -2°C° 0 mm 4 mps 748 mmHg 76%
    22:00 -1°C° 0 mm 3 mps 748 mmHg 78%
    23:00 -2°C° 0 mm 3 mps 748 mmHg 80%

    Tomorrow, 19 January, Sunday

    Time Temperature Precipitation Wind Pressure Humidity
    00:00 -1°C° 0 mm 3 mps 748 mmHg 81%
    01:00 -1°C° 0 mm 3 mps 749 mmHg 83%
    02:00 -1°C° 0 mm 3 mps 749 mmHg 84%
    03:00 -1°C° 0 mm 3 mps 749 mmHg 86%
    04:00 -2°C° 0 mm 3 mps 749 mmHg 89%
    05:00 -2°C° 0 mm 3 mps 749 mmHg 91%
    06:00 -1°C° 0 mm 3 mps 750 mmHg 91%
    07:00 -1°C° 0 mm 3 mps 750 mmHg 91%
    08:00 0°C° 0 mm 3 mps 750 mmHg 91%
    09:00 0°C° 0 mm 3 mps 750 mmHg 89%
    10:00 0°C° 0 mm 4 mps 750 mmHg 87%
    11:00 0°C° 0 mm 4 mps 750 mmHg 85%
    12:00 0°C° 0 mm 4 mps 751 mmHg 84%
    13:00 0°C° 0 mm 4 mps 751 mmHg 83%
    14:00 0°C° 0 mm 4 mps 751 mmHg 81%
    15:00 -1°C° 0 mm 4 mps 751 mmHg 82%
    16:00 -1°C° 0 mm 4 mps 751 mmHg 83%
    17:00 -1°C° 0 mm 4 mps 751 mmHg 85%
    18:00 -1°C° 0 mm 4 mps 751 mmHg 86%
    19:00 -1°C° 0 mm 4 mps 751 mmHg 88%
    20:00 -1°C° 0 mm 4 mps 751 mmHg 90%
    21:00 -1°C° 0.1 mm 4 mps 750 mmHg 91%
    22:00 -1°C° 0.1 mm 4 mps 750 mmHg 93%
    23:00 0°C° 0.1 mm 4 mps 750 mmHg 94%

    Day after tomorrow, 20 January, Monday

    Time Temperature Precipitation Wind Pressure Humidity
    00:00 0°C° 0.1 mm 5 mps 750 mmHg 95%
    01:00 0°C° 0.1 mm 5 mps 750 mmHg 95%
    02:00 -1°C° 0.1 mm 5 mps 750 mmHg 96%
    03:00 -1°C° 0.3 mm 5 mps 750 mmHg 95%
    04:00 -1°C° 0.3 mm 5 mps 750 mmHg 94%
    05:00 -1°C° 0.3 mm 5 mps 750 mmHg 93%
    06:00 -2°C° 0 mm 4 mps 751 mmHg 92%
    07:00 -2°C° 0 mm 4 mps 751 mmHg 92%
    08:00 -1°C° 0 mm 3 mps 751 mmHg 91%
    09:00 -1°C° 0 mm 3 mps 751 mmHg 89%
    10:00 -2°C° 0 mm 4 mps 751 mmHg 88%
    11:00 -1°C° 0 mm 4 mps 751 mmHg 86%
    12:00 -1°C° 0 mm 4 mps 751 mmHg 87%
    13:00 -1°C° 0 mm 4 mps 751 mmHg 88%
    14:00 -1°C° 0 mm 4 mps 751 mmHg 89%
    15:00 -1°C° 0 mm 4 mps 750 mmHg 90%
    16:00 -1°C° 0 mm 5 mps 750 mmHg 91%
    17:00 -1°C° 0 mm 5 mps 749 mmHg 92%
    18:00 -1°C° 0.1 mm 5 mps 749 mmHg 93%
    19:00 -2°C° 0.1 mm 5 mps 749 mmHg 93%
    20:00 -2°C° 0.1 mm 5 mps 749 mmHg 94%
    21:00 -2°C° 0.1 mm 5 mps 748 mmHg 92%
    22:00 -2°C° 0.1 mm 4 mps 748 mmHg 89%
    23:00 -2°C° 0.1 mm 4 mps 747 mmHg 87%

    21 January, Tuesday

    Time Temperature Precipitation Wind Pressure Humidity
    00:00 -2°C° 0 mm 4 mps 747 mmHg 87%
    01:00 -2°C° 0 mm 4 mps 746 mmHg 87%
    02:00 -2°C° 0 mm 4 mps 746 mmHg 88%
    03:00 -2°C° 0.3 mm 4 mps 745 mmHg 91%
    04:00 -2°C° 0.3 mm 4 mps 744 mmHg 94%
    05:00 -2°C° 0.3 mm 5 mps 743 mmHg 97%
    06:00 -1°C° 0.5 mm 5 mps 742 mmHg 94%
    07:00 0°C° 0.5 mm 5 mps 741 mmHg 91%
    08:00 +1°C° 0.5 mm 6 mps 740 mmHg 88%
    09:00 +1°C° 0.1 mm 6 mps 739 mmHg 88%
    10:00 +2°C° 0.1 mm 6 mps 739 mmHg 87%
    11:00 +2°C° 0.1 mm 6 mps 738 mmHg 86%
    12:00 +2°C° 0.1 mm 6 mps 737 mmHg 86%
    13:00 +3°C° 0.1 mm 6 mps 737 mmHg 85%
    14:00 +3°C° 0.1 mm 6 mps 737 mmHg 85%
    15:00 +2°C° 0.3 mm 6 mps 736 mmHg 86%
    16:00 +2°C° 0.3 mm 5 mps 736 mmHg 87%
    17:00 +2°C° 0.3 mm 5 mps 735 mmHg 88%
    18:00 +1°C° 0.2 mm 4 mps 735 mmHg 88%
    19:00 0°C° 0.2 mm 4 mps 734 mmHg 88%
    20:00 0°C° 0.2 mm 4 mps 734 mmHg 88%
    21:00 -1°C° 0.1 mm 4 mps 733 mmHg 86%
    22:00 -1°C° 0.1 mm 4 mps 733 mmHg 84%
    23:00 -1°C° 0.1 mm 4 mps 732 mmHg 82%

    22 January, Wednesday

    Time Temperature Precipitation Wind Pressure Humidity
    00:00 -2°C° 0 mm 4 mps 732 mmHg 82%
    01:00 -2°C° 0 mm 4 mps 731 mmHg 83%
    02:00 -4°C° 0 mm 5 mps 731 mmHg 83%
    03:00 -4°C° 0 mm 5 mps 731 mmHg 83%
    04:00 -3°C° 0 mm 4 mps 730 mmHg 82%
    05:00 -4°C° 0 mm 4 mps 730 mmHg 81%
    06:00 -5°C° 0 mm 5 mps 730 mmHg 80%
    07:00 -5°C° 0 mm 5 mps 729 mmHg 79%
    08:00 -5°C° 0 mm 5 mps 729 mmHg 77%
    09:00 -5°C° 0 mm 5 mps 729 mmHg 77%
    10:00 -4°C° 0 mm 6 mps 729 mmHg 77%
    11:00 -4°C° 0 mm 6 mps 730 mmHg 77%
    12:00 -4°C° 0.1 mm 6 mps 730 mmHg 79%
    13:00 -4°C° 0.1 mm 6 mps 730 mmHg 81%
    14:00 -4°C° 0.1 mm 6 mps 731 mmHg 84%
    15:00 -5°C° 0.1 mm 5 mps 731 mmHg 80%
    16:00 -5°C° 0.1 mm 5 mps 732 mmHg 77%
    17:00 -6°C° 0.1 mm 5 mps 733 mmHg 73%
    18:00 -7°C° 0 mm 5 mps 733 mmHg 71%
    19:00 -7°C° 0 mm 5 mps 734 mmHg 69%
    20:00 -9°C° 0 mm 6 mps 734 mmHg 66%
    21:00 -9°C° 0 mm 6 mps 734 mmHg 65%
    22:00 -9°C° 0 mm 6 mps 735 mmHg 64%
    23:00 -9°C° 0 mm 6 mps 735 mmHg 62%

    23 January, Thursday

    Time Temperature Precipitation Wind Pressure Humidity
    00:00 -9°C° 0 mm 6 mps 735 mmHg 62%
    01:00 -10°C° 0 mm 6 mps 735 mmHg 62%
    02:00 -10°C° 0 mm 6 mps 736 mmHg 61%
    03:00 -10°C° 0 mm 6 mps 736 mmHg 60%
    04:00 -10°C° 0 mm 6 mps 736 mmHg 60%
    05:00 -10°C° 0 mm 5 mps 736 mmHg 59%
    06:00 -10°C° 0 mm 5 mps 736 mmHg 60%
    07:00 -10°C° 0 mm 6 mps 736 mmHg 60%
    08:00 -10°C° 0 mm 6 mps 737 mmHg 61%
    09:00 -10°C° 0 mm 6 mps 737 mmHg 61%
    10:00 -10°C° 0 mm 6 mps 737 mmHg 60%
    11:00 -11°C° 0 mm 6 mps 738 mmHg 60%
    12:00 -11°C° 0 mm 6 mps 738 mmHg 61%
    13:00 -11°C° 0 mm 6 mps 739 mmHg 62%
    14:00 -11°C° 0 mm 6 mps 739 mmHg 64%
    15:00 -11°C° 0 mm 6 mps 740 mmHg 65%
    16:00 -11°C° 0 mm 6 mps 741 mmHg 66%
    17:00 -11°C° 0 mm 5 mps 742 mmHg 67%
    18:00 -12°C° 0 mm 5 mps 742 mmHg 69%
    19:00 -12°C° 0 mm 5 mps 743 mmHg 70%
    20:00 -12°C° 0 mm 5 mps 743 mmHg 72%
    21:00 -11°C° 0 mm 4 mps 744 mmHg 72%
    22:00 -11°C° 0 mm 4 mps 744 mmHg 72%
    23:00 -12°C° 0 mm 4 mps 745 mmHg 73%
    Show more